Location: Madrid
(40.4000°N, 3.6830°W)
Time: 01:12:21
(UTC+02:00)

ISS - Pass Details

Date: 17 July 2019
Orbit: 409 x 418 km, 51.6° (Epoch: 23 July)

Event Time Altitude Azimuth Distance (km) Brightness Sun altitude
Rises 00:37:14 0° 260° (W) 2,346 0.2 -23.8°
Reaches altitude 10° 00:39:30 10° 272° (W) 1,484 -0.7 -24.0°
Maximum altitude 00:42:26 28° 334° (NNW) 810 -1.7 -24.2°
Drops below altitude 10° 00:45:23 10° 36° (NE) 1,484 -0.6 -24.4°
Sets 00:47:39 0° 48° (NE) 2,347 0.3 -24.6°
